Location: Bonny Doon Airfield
(37.0704°N, 122.1252°W)
Time: 23:29:27
(UTC-08:00)

Vanguard 1 Rocket - Pass Details

Date: 22 October 2017
Orbit: 655 x 4222 km, 34.3° (Epoch: 22 November)

Event Time Altitude Azimuth Distance (km) Brightness Sun altitude
Rises 08:34:10 0° 254° (WSW) 4,915 10.7 12.5°
Reaches altitude 10° 08:38:08 10° 252° (WSW) 3,416 10.0 13.2°
Maximum altitude 08:45:39 62° 173° (S) 993 8.1 14.6°
Drops below altitude 10° 08:50:23 10° 93° (E) 2,179 10.8 15.4°
Sets 08:52:25 0° 89° (E) 3,005 11.2 15.8°
